Weather History for Cork, Ireland

Change the Weather History Date:

Tuesday, May 8, 2012

  Actual Average Record
Temperature  
Mean Temperature 48 °F -  
Max Temperature 53 °F 58 °F 66 °F (2000)
Min Temperature 42 °F 45 °F 39 °F (2005)
Degree Days  
Heating Degree Days 18    
Moisture  
Dew Point 41 °F    
Average Humidity 75    
Maximum Humidity 100    
Minimum Humidity 44    
Precipitation  
Precipitation 0.00 in 0.10 in - ()
Sea Level Pressure  
Sea Level Pressure 29.66 in    
Wind  
Wind Speed 9 mph ()    
Max Wind Speed 15 mph    
Max Gust Speed -    
Visibility 6.5 miles    
Events Rain    
Averages and records for this station are not official NWS values.
T = Trace of Precipitation, MM = Missing Value Source: Averaged Metar Reports

Daily Weather History Graph

Daily Weather History Graph

Search for Another Location

Airport:

Trip Planner

Search our weather history database for the weather conditions in past years. The results will help you decide how hot, cold, wet, or windy it might be!

Date:

Astronomy

May. 08, 2012 Rise Set
Actual Time 5:51 AM IST 9:10 PM IST
Civil Twilight 5:11 AM IST 9:50 PM IST
Nautical Twilight 4:17 AM IST 10:45 PM IST
Astronomical Twilight 3:04 AM IST 11:59 PM IST
Moon No Moon Rise 7:32 AM IST (5/8)
Length of Visible Light 16h 39m
Length of Day
15h 18m
Waning Gibbous, 92% of the Moon is Illuminated
May 8
Waning Gibbous
May 12
Last Quarter
May 21
New
May 28
First Quarter
Jun 4
Full

Hourly Weather History & Observations

Time (IST) Temp. Windchill Dew Point Humidity Pressure Visibility Wind Dir Wind Speed Gust Speed Precip Events Conditions
12:00 AM 48.2 °F - 44.6 °F 87% 29.62 in 6.2 mi SW 12.7 mph - N/A   Mostly Cloudy
12:30 AM 44.6 °F 38.4 °F 41.0 °F 87% 29.62 in 6.2 mi SW 12.7 mph - N/A   Scattered Clouds
1:00 AM 44 °F - 42 °F 91% 29.64 in 19 mi SW 8.9 mph - -   Partly Cloudy
1:00 AM 44.6 °F 39.7 °F 42.8 °F 93% 29.62 in 6.2 mi SW 9.2 mph - N/A   Partly Cloudy
1:30 AM 42.8 °F 37.0 °F 42.8 °F 100% 29.59 in 6.2 mi SW 10.4 mph - N/A   Partly Cloudy
2:00 AM 42.8 °F 37.5 °F 42.8 °F 100% 29.59 in 6.2 mi SSW 9.2 mph - N/A   Partly Cloudy
2:30 AM 42.8 °F 37.5 °F 42.8 °F 100% 29.59 in 6.2 mi SW 9.2 mph - N/A   Partly Cloudy
3:00 AM 42.8 °F 37.5 °F 42.8 °F 100% 29.59 in 6.2 mi SW 9.2 mph - N/A   Scattered Clouds
3:30 AM 44.6 °F 40.2 °F 44.6 °F 100% 29.62 in 6.2 mi WSW 8.1 mph - N/A Rain Light Rain
4:00 AM 44.6 °F 40.7 °F 44.6 °F 100% 29.62 in 6.2 mi WSW 6.9 mph - N/A   Mostly Cloudy
4:30 AM 44.6 °F 41.4 °F 42.8 °F 93% 29.62 in 6.2 mi West 5.8 mph - N/A   Mostly Cloudy
5:00 AM 44.6 °F 40.2 °F 42.8 °F 93% 29.62 in 6.2 mi West 8.1 mph - N/A   Mostly Cloudy
5:30 AM 44.6 °F 40.2 °F 42.8 °F 93% 29.62 in 6.2 mi West 8.1 mph - N/A   Mostly Cloudy
6:00 AM 44.6 °F 40.2 °F 42.8 °F 93% 29.62 in 6.2 mi West 8.1 mph - N/A   Mostly Cloudy
6:30 AM 44.6 °F 40.2 °F 42.8 °F 93% 29.62 in 6.2 mi West 8.1 mph - N/A   Mostly Cloudy
7:00 AM 45 °F - 42 °F 86% 29.66 in 25 mi West 6.7 mph - -   Partly Cloudy
7:00 AM 44.6 °F 40.7 °F 42.8 °F 93% 29.65 in 6.2 mi West 6.9 mph - N/A   Mostly Cloudy
7:30 AM 44.6 °F 39.7 °F 41.0 °F 87% 29.65 in 6.2 mi West 9.2 mph - N/A   Mostly Cloudy
8:00 AM 46.4 °F 41.5 °F 41.0 °F 81% 29.65 in 6.2 mi West 10.4 mph - N/A   Mostly Cloudy
8:30 AM 46.4 °F 41.9 °F 41.0 °F 81% 29.65 in 6.2 mi West 9.2 mph - N/A   Mostly Cloudy
9:00 AM 48.2 °F - 42.8 °F 82% 29.65 in 6.2 mi NW 9.2 mph - N/A   Scattered Clouds
9:30 AM 48.2 °F - 41.0 °F 76% 29.65 in 6.2 mi WNW 12.7 mph - N/A   Mostly Cloudy
10:00 AM 50.0 °F - 39.2 °F 66% 29.65 in 6.2 mi WNW 10.4 mph - N/A   Mostly Cloudy
10:30 AM 50.0 °F - 41.0 °F 71% 29.68 in 6.2 mi WNW 13.8 mph - N/A   Mostly Cloudy
11:00 AM 50.0 °F - 41.0 °F 71% 29.68 in 6.2 mi NW 12.7 mph - N/A   Mostly Cloudy
11:30 AM 50.0 °F - 41.0 °F 71% 29.68 in 6.2 mi NW 12.7 mph - N/A   Mostly Cloudy
12:00 PM 51.8 °F - 41.0 °F 67% 29.68 in 6.2 mi NNW 15.0 mph - N/A   Mostly Cloudy
12:30 PM 51.8 °F - 42.8 °F 71% 29.68 in 6.2 mi NW 12.7 mph - N/A   Mostly Cloudy
1:00 PM 52 °F - 40 °F 52% 29.71 in 28 mi NNW 13.4 mph - -   Mostly Cloudy
1:00 PM 51.8 °F - 39.2 °F 62% 29.68 in 6.2 mi NNW 12.7 mph - N/A   Mostly Cloudy
1:30 PM 51.8 °F - 39.2 °F 62% 29.68 in 6.2 mi NNW 12.7 mph - N/A   Mostly Cloudy
2:00 PM 51.8 °F - 39.2 °F 62% 29.71 in 6.2 mi NW 15.0 mph - N/A   Mostly Cloudy
2:30 PM 51.8 °F - 37.4 °F 58% 29.71 in 6.2 mi NNW 11.5 mph - N/A   Mostly Cloudy
3:00 PM 51.8 °F - 39.2 °F 62% 29.71 in 6.2 mi NNW 12.7 mph - N/A   Mostly Cloudy
3:30 PM 53.6 °F - 39.2 °F 58% 29.71 in 6.2 mi NW 12.7 mph - N/A   Mostly Cloudy
4:00 PM 53.6 °F - 39.2 °F 58% 29.68 in 6.2 mi NNW 12.7 mph - N/A   Mostly Cloudy
4:30 PM 53.6 °F - 39.2 °F 58% 29.68 in 6.2 mi North 12.7 mph - N/A   Mostly Cloudy
5:00 PM 51.8 °F - 39.2 °F 62% 29.68 in 6.2 mi North 11.5 mph - N/A   Mostly Cloudy
5:30 PM 51.8 °F - 39.2 °F 62% 29.68 in 6.2 mi North 10.4 mph - N/A   Mostly Cloudy
6:00 PM 51.8 °F - 37.4 °F 58% 29.71 in 6.2 mi North 8.1 mph - N/A   Mostly Cloudy
6:30 PM 51.8 °F - 39.2 °F 62% 29.71 in 6.2 mi North 8.1 mph - N/A   Mostly Cloudy
7:00 PM 52 °F - 36 °F 44% 29.71 in 31 mi North 8.9 mph - -   Partly Cloudy
7:00 PM 51.8 °F - 37.4 °F 58% 29.68 in 6.2 mi North 9.2 mph - N/A   Mostly Cloudy
7:30 PM 51.8 °F - 39.2 °F 62% 29.68 in 6.2 mi North 10.4 mph - N/A   Mostly Cloudy
8:00 PM 51.8 °F - 39.2 °F 62% 29.68 in 6.2 mi NNE 10.4 mph - N/A   Mostly Cloudy
8:30 PM 50.0 °F - 37.4 °F 62% 29.71 in 6.2 mi North 8.1 mph - N/A   Mostly Cloudy
9:00 PM 50.0 °F - 39.2 °F 66% 29.71 in 6.2 mi North 9.2 mph - N/A   Mostly Cloudy
9:30 PM 50.0 °F - 39.2 °F 66% 29.71 in 6.2 mi North 8.1 mph - N/A   Mostly Cloudy
10:00 PM 48.2 °F - 39.2 °F 71% 29.71 in 6.2 mi North 8.1 mph - N/A   Mostly Cloudy
10:30 PM 48.2 °F - 39.2 °F 71% 29.71 in 6.2 mi NNW 9.2 mph - N/A   Mostly Cloudy
11:00 PM 48.2 °F - 39.2 °F 71% 29.71 in 6.2 mi NNW 9.2 mph - N/A   Mostly Cloudy
11:30 PM 46.4 °F 41.5 °F 39.2 °F 76% 29.71 in 6.2 mi NNW 10.4 mph - N/A   Mostly Cloudy